Weather History for KOMH - March, 2013

Change the Weather History Date:

Monday, March 18, 2013

  Actual Average Record
Temperature  
Mean Temperature 32 °F -  
Max Temperature 32 °F 56 °F 79 °F (1982)
Min Temperature 32 °F 31 °F 14 °F (1974)
Degree Days  
Heating Degree Days 33    
Moisture  
Dew Point 32 °F    
Average Humidity 100    
Maximum Humidity 100    
Minimum Humidity 100    
Precipitation  
Precipitation 0.27 in - - ()
Sea Level Pressure  
Sea Level Pressure 30.17 in    
Wind  
Wind Speed 3 mph (North)    
Max Wind Speed 8 mph    
Max Gust Speed -    
Visibility 3 miles    
Events Rain , Snow    
Averages and records for this station are not official NWS values.
T = Trace of Precipitation, MM = Missing Value Source: NWS Daily Summary

Daily Weather History Graph

Daily Weather History Graph

Search for Another Location

Airport or City:

Trip Planner

Search our weather history database for the weather conditions in past years. The results will help you decide how hot, cold, wet, or windy it might be!

Date:

Astronomy

Mar. 18, 2013 Rise Set
Actual Time 7:18 AM EDT 7:22 PM EDT
Civil Twilight 6:52 AM EDT 7:48 PM EDT
Nautical Twilight 6:21 AM EDT 8:19 PM EDT
Astronomical Twilight 5:50 AM EDT 8:50 PM EDT
Moon 11:21 AM EDT (3/18) 1:15 AM EDT (3/18)
Length of Visible Light 12h 56m
Length of Day
12h 04m
Waxing Crescent, 40% of the Moon is Illuminated
Mar 18
Waxing Crescent
Mar 19
First Quarter
Mar 27
Full
Apr 3
Last Quarter
Apr 10
New

Hourly Weather History & Observations

Time (EDT) Temp. Windchill Dew Point Humidity Pressure Visibility Wind Dir Wind Speed Gust Speed Precip Events Conditions
12:15 AM 32.0 °F 28.7 °F 32.0 °F 100% 30.29 in 1.5 mi NNW 3.5 mph - N/A Snow Light Snow
12:35 AM 32.0 °F 28.7 °F 32.0 °F 100% 30.28 in 1.8 mi NNW 3.5 mph - N/A Snow Light Snow
12:55 AM 32.0 °F 28.7 °F 32.0 °F 100% 30.28 in 1.2 mi NNW 3.5 mph - N/A Snow Light Snow
1:15 AM 32.0 °F 28.7 °F 32.0 °F 100% 30.27 in 1.2 mi NNW 3.5 mph - N/A Snow Light Snow
1:35 AM 32.0 °F - 32.0 °F 100% 30.27 in 1.0 mi Calm Calm - N/A Snow Light Snow
1:55 AM 32.0 °F 28.7 °F 32.0 °F 100% 30.28 in 1.0 mi North 3.5 mph - N/A Snow Light Snow
2:15 AM 32.0 °F 28.7 °F 32.0 °F 100% 30.28 in 1.2 mi North 3.5 mph - N/A Snow Light Snow
2:35 AM 32.0 °F - 32.0 °F 100% 30.28 in 1.0 mi Calm Calm - N/A Snow Light Snow
2:55 AM 32.0 °F 28.7 °F 32.0 °F 100% 30.27 in 1.0 mi North 3.5 mph - N/A Snow Light Snow
3:15 AM 32.0 °F - 32.0 °F 100% 30.27 in 2.0 mi Calm Calm - N/A   Overcast
3:35 AM 32.0 °F - 32.0 °F 100% 30.27 in 2.0 mi Calm Calm - N/A Rain Light Rain
3:55 AM 32.0 °F 28.7 °F 32.0 °F 100% 30.27 in 1.2 mi NNE 3.5 mph - N/A   Overcast
4:15 AM 32.0 °F 28.7 °F 32.0 °F 100% 30.27 in 1.2 mi North 3.5 mph - N/A Snow Light Snow
4:35 AM 32.0 °F 28.7 °F 32.0 °F 100% 30.26 in 0.8 mi North 3.5 mph - N/A Snow Light Snow
4:55 AM 32.0 °F 28.7 °F 32.0 °F 100% 30.27 in 0.8 mi North 3.5 mph - N/A Snow Light Snow
5:15 AM 32.0 °F - 32.0 °F 100% 30.28 in 0.5 mi Calm Calm - N/A Snow Light Snow
5:35 AM 32.0 °F - 32.0 °F 100% 30.29 in 0.8 mi Calm Calm - N/A Snow Light Snow
5:55 AM 32.0 °F - 32.0 °F 100% 30.30 in 0.8 mi Calm Calm - N/A Snow Light Snow
6:15 AM 32.0 °F - 32.0 °F 100% 30.29 in 1.5 mi Calm Calm - N/A Snow Light Snow
6:35 AM 32.0 °F - 32.0 °F 100% 30.30 in 1.0 mi Calm Calm - N/A Snow Light Snow
6:55 AM 32.0 °F 26.4 °F 32.0 °F 100% 30.30 in 1.8 mi NE 5.8 mph - N/A Snow Light Snow
7:15 AM 32.0 °F - 32.0 °F 100% 30.30 in 1.8 mi Calm Calm - N/A Snow Light Snow
7:35 AM 32.0 °F - 32.0 °F 100% 30.31 in 1.5 mi Calm Calm - N/A Snow Light Snow
7:55 AM 32.0 °F - 32.0 °F 100% 30.30 in 1.8 mi Calm Calm - N/A Snow Light Snow
8:15 AM 32.0 °F - 32.0 °F 100% 30.30 in 2.0 mi Calm Calm - N/A Snow Light Snow
8:55 AM 32.0 °F 25.6 °F 32.0 °F 100% 30.30 in 3.0 mi NE 6.9 mph - N/A Snow Light Snow
9:15 AM 32.0 °F 24.8 °F 32.0 °F 100% 30.29 in 7.0 mi NE 8.1 mph - N/A   Overcast
9:35 AM 32.0 °F 25.6 °F 32.0 °F 100% 30.28 in 10.0 mi NE 6.9 mph - N/A   Overcast
9:55 AM 32.0 °F 28.7 °F 32.0 °F 100% 30.28 in 5.0 mi NNE 3.5 mph - N/A   Overcast
10:15 AM 32.0 °F 27.5 °F 32.0 °F 100% 30.28 in 4.0 mi NE 4.6 mph - N/A   Overcast
10:35 AM 32.0 °F 27.5 °F 32.0 °F 100% 30.26 in 2.5 mi NE 4.6 mph - N/A   Overcast
10:55 AM 32.0 °F 26.4 °F 32.0 °F 100% 30.25 in 1.8 mi NE 5.8 mph - N/A   Overcast
11:15 AM 32.0 °F 24.8 °F 32.0 °F 100% 30.23 in 2.5 mi NE 8.1 mph - N/A   Overcast
11:35 AM 32.0 °F 27.5 °F 32.0 °F 100% 30.23 in 4.0 mi ENE 4.6 mph - N/A   Overcast
11:55 AM 32.0 °F 27.5 °F 32.0 °F 100% 30.23 in 2.5 mi North 4.6 mph - N/A   Overcast
12:15 PM 32.0 °F 28.7 °F 32.0 °F 100% 30.22 in 1.8 mi North 3.5 mph - N/A   Overcast
12:35 PM 32.0 °F 26.4 °F 32.0 °F 100% 30.21 in 1.5 mi North 5.8 mph - N/A   Drizzle
12:55 PM 32.0 °F - 32.0 °F 100% 30.21 in 1.2 mi Calm Calm - N/A   Overcast
1:15 PM 32.0 °F 27.5 °F 32.0 °F 100% 30.18 in 1.2 mi North 4.6 mph - N/A Rain Light Rain
1:35 PM 32.0 °F 26.4 °F 32.0 °F 100% 30.15 in 1.8 mi North 5.8 mph - N/A   Drizzle
1:55 PM 32.0 °F 28.7 °F 32.0 °F 100% 30.16 in 2.0 mi NNW 3.5 mph - N/A   Light Drizzle
2:15 PM 32.0 °F - 32.0 °F 100% 30.15 in 2.5 mi Calm Calm - N/A Rain Light Rain
2:35 PM 32.0 °F 27.5 °F 32.0 °F 100% 30.12 in 2.5 mi North 4.6 mph - N/A   Light Drizzle
2:55 PM 32.0 °F 28.7 °F 32.0 °F 100% 30.11 in 2.5 mi North 3.5 mph - 0.01 in   Drizzle
3:15 PM 32.0 °F 28.7 °F 32.0 °F 100% 30.11 in 2.0 mi WNW 3.5 mph - N/A   Light Drizzle
3:35 PM 32.0 °F 28.7 °F 32.0 °F 100% 30.09 in 1.8 mi NW 3.5 mph - N/A   Drizzle
3:55 PM 32.0 °F 27.5 °F 32.0 °F 100% 30.09 in 1.5 mi NW 4.6 mph - N/A   Light Drizzle
4:15 PM 32.0 °F 27.5 °F 32.0 °F 100% 30.09 in 1.5 mi NW 4.6 mph - N/A Rain Rain
4:35 PM 32.0 °F 27.5 °F 32.0 °F 100% 30.08 in 2.0 mi NW 4.6 mph - N/A   Overcast
4:55 PM 32.0 °F 27.5 °F 32.0 °F 100% 30.07 in 1.8 mi WNW 4.6 mph - N/A   Overcast
5:15 PM 32.0 °F 26.4 °F 32.0 °F 100% 30.07 in 2.5 mi WNW 5.8 mph - 0.01 in   Overcast
5:35 PM 32.0 °F 27.5 °F 32.0 °F 100% 30.07 in 2.0 mi WNW 4.6 mph - 0.01 in   Overcast
5:55 PM 32.0 °F - 32.0 °F 100% 30.05 in 2.0 mi Calm Calm - 0.03 in   Overcast
6:15 PM 32.0 °F 27.5 °F 32.0 °F 100% 30.05 in 4.0 mi NW 4.6 mph - 0.02 in   Overcast
6:35 PM 32.0 °F 28.7 °F 32.0 °F 100% 30.03 in 3.0 mi NW 3.5 mph - 0.06 in Rain Rain
6:55 PM 32.0 °F - 32.0 °F 100% 30.03 in 3.0 mi Calm Calm - 0.09 in   Overcast
7:15 PM 32.0 °F 28.7 °F 32.0 °F 100% 30.01 in 3.0 mi NNE 3.5 mph - 0.02 in   Overcast
7:35 PM 32.0 °F - 32.0 °F 100% 30.00 in 5.0 mi Calm Calm - 0.05 in   Overcast
8:15 PM 32.0 °F - 32.0 °F 100% 29.99 in 5.0 mi Calm Calm - 0.01 in   Drizzle
8:35 PM 32.0 °F - 32.0 °F 100% 29.98 in 10.0 mi Calm Calm - 0.02 in   Drizzle
8:55 PM 32.0 °F 28.7 °F 32.0 °F 100% 29.99 in 5.0 mi South 3.5 mph - 0.02 in Rain Rain
9:15 PM 32.0 °F - 32.0 °F 100% 29.97 in 2.5 mi Calm Calm - 0.02 in Rain Light Rain
9:35 PM 32.0 °F - 32.0 °F 100% 29.96 in 4.0 mi Calm Calm - 0.03 in Rain Light Rain
9:55 PM 32.0 °F - 32.0 °F 100% 29.94 in 5.0 mi Calm Calm - 0.05 in Rain Rain
10:15 PM 32.0 °F - 32.0 °F 100% 29.93 in 7.0 mi Calm Calm - N/A   Overcast
10:35 PM 32.0 °F - 32.0 °F 100% 29.94 in 7.0 mi Calm Calm - 0.01 in   Drizzle
10:55 PM 32.0 °F - 32.0 °F 100% 29.92 in 7.0 mi Calm Calm - 0.01 in   Overcast
11:15 PM 32.0 °F - 32.0 °F 100% 29.91 in 7.0 mi Calm Calm - 0.01 in   Overcast
11:55 PM 32.0 °F 26.4 °F 32.0 °F 100% 29.93 in 7.0 mi SW 5.8 mph - 0.01 in   Overcast